Monticello, KY

4:14 PM EST on December 09, 2019 (GMT -0500)
Wayne County

Weather History for KEKQ - September, 2019

Change the Weather History Date:

Saturday, September 7, 2019

  Actual Average Record
Temperature  
Mean Temperature 72 °F -  
Max Temperature 82 °F 84 °F 96 °F (1990)
Min Temperature 57 °F 59 °F -74 °F (2013)
Cooling Degree Days 6    
Growing Degree Days 22 (Base 50)    
Moisture  
Dew Point 65 °F    
Average Humidity 84    
Maximum Humidity 100    
Minimum Humidity 51    
Precipitation  
Precipitation 0.00 in - - ()
Sea Level Pressure  
Sea Level Pressure 30.01 in    
Wind  
Wind Speed 11 mph (North)    
Max Wind Speed 17 mph    
Max Gust Speed 17 mph    
Visibility 10 miles    
Events      
Averages and records for this station are not official NWS values.
T = Trace of Precipitation, MM = Missing Value Source: NWS Daily Summary

Daily Weather History Graph

Daily Weather History Graph

Search for Another Location

Airport or City:

Astronomy

Sep. 07, 2019 Rise Set
Actual Time 6:15 AM CDT 6:59 PM CDT
Civil Twilight 5:48 AM CDT 7:25 PM CDT
Nautical Twilight 5:17 AM CDT 7:56 PM CDT
Astronomical Twilight 4:45 AM CDT 8:28 PM CDT
Moon 3:07 PM CDT (9/7) 12:13 AM CDT (9/7)
Length of Visible Light 13h 36m
Length of Day
12h 44m
Waxing Gibbous, 66% of the Moon is Illuminated
Sep 7
Waxing Gibbous
Sep 13
Full
Sep 21
Last Quarter
Sep 28
New
Oct 5
First Quarter

Hourly Weather History & Observations

Time (CDT) Temp. Heat Index Dew Point Humidity Pressure Visibility Wind Dir Wind Speed Gust Speed Precip Events Conditions
12:56 AM 73.0 °F - 71.1 °F 93% 29.94 in 10.0 mi NNW 9.2 mph - N/A   Mostly Cloudy
1:30 AM 73.4 °F - 69.8 °F 88% 29.98 in 10.0 mi NNE 15.0 mph - N/A   Mostly Cloudy
1:56 AM 72.0 °F - 70.0 °F 93% 29.95 in 9.0 mi NNE 13.8 mph - N/A   Mostly Cloudy
2:23 AM 69.8 °F - 69.8 °F 100% 29.99 in 10.0 mi NNE 13.8 mph - N/A   Mostly Cloudy
2:42 AM 69.8 °F - 68.0 °F 94% - 10.0 mi NNE 12.7 mph - N/A   Mostly Cloudy
2:53 AM 69.8 °F - 66.2 °F 88% 29.99 in 10.0 mi NNE 12.7 mph - N/A   Mostly Cloudy
2:56 AM 69.1 °F - 66.9 °F 93% 29.95 in 10.0 mi NNE 12.7 mph - N/A   Mostly Cloudy
3:56 AM 66.9 °F - 66.9 °F 100% 29.96 in 10.0 mi NNE 12.7 mph - N/A   Overcast
4:08 AM 66.2 °F - 66.2 °F 100% 30.00 in 10.0 mi North 9.2 mph - N/A   Overcast
4:56 AM 66.9 °F - 66.0 °F 97% 29.97 in 10.0 mi West 8.1 mph - N/A   Mostly Cloudy
5:56 AM 66.9 °F - 64.9 °F 93% 29.99 in 10.0 mi NNE 11.5 mph - N/A   Overcast
6:21 AM 66.2 °F - 64.4 °F 94% 30.04 in 10.0 mi NNW 5.8 mph - N/A   Overcast
6:56 AM 66.9 °F - 66.0 °F 97% 30.01 in 10.0 mi North 4.6 mph - N/A   Overcast
8:10 AM 68.0 °F - 64.4 °F 88% 30.06 in 10.0 mi North 11.5 mph - N/A   Overcast
8:56 AM 69.1 °F - 66.0 °F 90% 30.05 in 10.0 mi NW 8.1 mph - N/A   Overcast
9:56 AM 72.0 °F - 66.9 °F 84% 30.04 in 10.0 mi NNW 9.2 mph - N/A   Overcast
10:22 AM 71.6 °F - 64.4 °F 78% 30.08 in 10.0 mi North 8.1 mph - N/A   Overcast
10:56 AM 72.0 °F - 64.9 °F 78% 30.05 in 10.0 mi North - - N/A   Mostly Cloudy
11:56 AM 73.9 °F - 63.0 °F 68% 30.03 in 10.0 mi Variable 5.8 mph - N/A   Mostly Cloudy
12:56 PM 75.9 °F - 61.0 °F 60% 30.02 in 10.0 mi Variable 6.9 mph - N/A   Scattered Clouds
1:56 PM 78.1 °F - 63.0 °F 60% 30.00 in 10.0 mi North 13.8 mph 17.3 mph N/A   Mostly Cloudy
2:56 PM 82.0 °F 83.0 °F 62.1 °F 51% - 10.0 mi North - - N/A   Scattered Clouds
3:56 PM 81.0 °F 82.5 °F 64.0 °F 56% 29.98 in 10.0 mi Variable 5.8 mph - N/A   Clear
4:56 PM 80.1 °F 81.5 °F 63.0 °F 56% 29.97 in 10.0 mi North 11.5 mph - N/A   Clear
5:56 PM 77.0 °F - 63.0 °F 62% 29.98 in 8.0 mi North 17.3 mph - N/A   Clear
6:56 PM 69.1 °F - 63.0 °F 81% 30.00 in 10.0 mi NNE 12.7 mph - N/A   Clear
7:56 PM 64.0 °F - 61.0 °F 90% 30.01 in 10.0 mi NE 9.2 mph - N/A   Clear
8:56 PM 63.0 °F - 61.0 °F 93% 30.03 in 10.0 mi NNE 16.1 mph - N/A   Clear
9:07 PM 64.4 °F - 62.6 °F 94% 30.06 in 10.0 mi NW 9.2 mph - N/A   Clear
9:56 PM 64.9 °F - 61.0 °F 87% 30.04 in 10.0 mi NW 8.1 mph - N/A   Clear
10:56 PM 61.0 °F - 59.0 °F 93% 30.05 in 10.0 mi WNW 8.1 mph - N/A   Clear
11:56 PM 57.9 °F - 57.0 °F 97% 30.06 in 10.0 mi NNE 8.1 mph - N/A   Clear